Location: Vale
(35.4830°N, 81.3830°W)
Time: 01:30:14
(UTC-04:00)

Amateur Radio Satellites - All Passes

Search period start: 31 July 2016 01:00
Search period end: 01 August 2016 01:00
Location: Vale, 35.4830°N, 81.3830°W

Satellite Date Start Highest point End Downlink Frequencies (MHz)
Time Altitude Azimuth
AISAT 31 Jul 01:01:56 01:05:59 36° 262° (W) 01:10:04 437.250
AIST 1 31 Jul 01:02:13 01:06:36 82° 262° (W) 01:10:57
QB50P2 31 Jul 01:09:35 01:13:51 67° 285° (WNW) 01:18:04 145.880/145.840
POLYITAN 1 31 Jul 01:12:14 01:16:30 66° 284° (WNW) 01:20:42 437.675
SPROUT 31 Jul 01:17:38 01:21:49 57° 259° (W) 01:26:04 437.525
TIGRISAT 31 Jul 01:21:06 01:21:15 10° 297° (WNW) 01:21:24 435.000
JUGNU 31 Jul 01:26:14 01:29:47 16° 174° (S) 01:33:20 437.505
CUBEBUG 1 31 Jul 01:46:26 01:47:29 11° 268° (W) 01:48:32 437.445
BUGSAT 1 31 Jul 01:50:42 01:54:55 63° 285° (WNW) 01:59:07 437.445
NANOSAT C BR1 31 Jul 01:52:03 01:55:30 24° 290° (WNW) 01:58:56 145.865
DUCHIFAT 1 31 Jul 01:54:14 01:57:41 24° 290° (WNW) 02:01:08 145.980
TISAT 1 31 Jul 01:57:38 02:01:50 89° 62° (ENE) 02:06:05 437.305
ISS 31 Jul 02:04:09 02:05:39 13° 26° (NNE) 02:07:09 145.825
SRMSAT 31 Jul 02:05:44 02:06:14 10° 165° (SSE) 02:06:42 437.500
Cosmos 2499 31 Jul 02:09:52 02:15:28 22° 69° (ENE) 02:20:48 435.465 / 435.565
QB50P1 31 Jul 02:18:26 02:20:13 12° 294° (WNW) 02:22:00 145.935-145.965
SWISSCUBE 31 Jul 02:21:42 02:25:55 32° 70° (ENE) 02:30:10 437.505
GONETS M04 31 Jul 02:24:04 02:32:26 45° 77° (ENE) 02:40:45
JAS-2 31 Jul 02:24:44 02:30:01 53° 287° (WNW) 02:35:52 435.910
BEESAT 3 31 Jul 02:25:54 02:28:37 17° 51° (NE) 02:31:18 437.485
POPSAT HIP 1 31 Jul 02:26:09 02:27:02 11° 295° (WNW) 02:27:54 437.405
BEESAT 2 31 Jul 02:40:59 02:43:07 14° 48° (NE) 02:45:15 435.950
BEESAT 31 Jul 02:42:09 02:46:44 48° 73° (ENE) 02:51:20 436.000
CUSAT 1 31 Jul 02:58:17 02:59:38 12° 95° (E) 03:00:54 437.405
Oscar 19 31 Jul 03:02:54 03:08:05 81° 284° (WNW) 03:13:16 437.125/150
ITUPSAT 1 31 Jul 03:07:53 03:12:41 89° 94° (E) 03:17:31 437.325
ITAMSAT 1 31 Jul 03:09:28 03:12:02 14° 92° (E) 03:14:37 435.822/435.867
JUGNU 31 Jul 03:14:23 03:18:04 17° 184° (S) 03:21:44 437.505
Gurwin Techsat 1B 31 Jul 03:17:40 03:22:57 60° 101° (E) 03:28:10 435.225
KKS-1 31 Jul 03:20:01 03:21:42 12° 64° (ENE) 03:23:23 437.445
ISS 31 Jul 03:39:14 03:42:30 89° 53° (NE) 03:45:44 145.825
STARS 31 Jul 03:47:14 03:48:39 11° 64° (ENE) 03:50:04 437.465
SRMSAT 31 Jul 03:51:04 03:54:37 16° 175° (S) 03:58:10 437.500
DANDE 31 Jul 03:57:51 04:02:29 29° 97° (E) 04:06:07 436.750
SWISSCUBE 31 Jul 03:59:59 04:03:42 22° 264° (W) 04:07:26 437.505
Cosmos 2499 31 Jul 04:01:42 04:09:08 59° 269° (W) 04:16:06 435.465 / 435.565
BEESAT 3 31 Jul 04:02:45 04:06:23 35° 246° (WSW) 04:09:59 437.485
PCSat 31 Jul 04:10:54 04:16:03 42° 58° (ENE) 04:21:10 145.827
BEESAT 2 31 Jul 04:17:21 04:21:13 48° 245° (WSW) 04:25:02 435.950
GONETS M04 31 Jul 04:21:15 04:28:57 35° 274° (W) 04:36:41
BEESAT 31 Jul 04:22:02 04:24:43 15° 267° (W) 04:27:26 436.000
MOZHAYETS 4 31 Jul 04:22:14 04:26:50 66° 75° (ENE) 04:31:25
CUSAT 1 31 Jul 04:38:20 04:41:30 24° 279° (W) 04:44:10 437.405
AO-7 31 Jul 04:41:56 04:49:57 49° 102° (ESE) 04:57:53 29.400- 29.500
ITAMSAT 1 31 Jul 04:46:45 04:51:51 59° 286° (WNW) 04:56:54 435.822/435.867
KKS-1 31 Jul 04:53:23 04:57:44 56° 259° (W) 05:02:07 437.445
Gurwin Techsat 1B 31 Jul 04:59:19 05:02:20 15° 296° (WNW) 05:05:20 435.225
JUGNU 31 Jul 05:04:47 05:06:18 11° 194° (SSW) 05:07:50 437.505
RS-15 31 Jul 05:09:50 05:18:00 23° 100° (E) 05:26:24 29.354- 29.394
AIST 2 31 Jul 05:16:43 05:20:21 28° 54° (NE) 05:24:00 435.215
STARS 31 Jul 05:20:08 05:24:27 58° 259° (W) 05:28:49 437.465
SRMSAT 31 Jul 05:39:28 05:43:02 16° 185° (S) 05:46:35 437.500
DANDE 31 Jul 05:41:19 05:45:04 20° 280° (W) 05:48:11 436.750
CUBESAT XI-V 31 Jul 05:53:24 05:58:00 74° 76° (ENE) 06:02:36 437.345
PCSat 31 Jul 05:55:00 05:59:07 22° 254° (WSW) 06:03:13 145.827
O/OREOS (USA 219) 31 Jul 06:10:30 06:14:46 39° 66° (ENE) 06:19:02 437.305
HORYU 2 31 Jul 06:11:12 06:15:35 56° 101° (E) 06:19:56 437.375
SO-50 31 Jul 06:30:27 06:33:24 16° 108° (ESE) 06:36:22 436.795
NOAA 18 31 Jul 06:32:13 06:35:01 14° 92° (E) 06:37:47 137.9125
AO-7 31 Jul 06:35:08 06:42:23 35° 298° (WNW) 06:49:37 29.400- 29.500
Cubesat XI-IV 31 Jul 06:36:21 06:39:29 16° 93° (E) 06:42:36 437.490
BRITE-PL 31 Jul 06:48:12 06:53:00 41° 99° (E) 06:58:07 437.365/2234.400
AIST 2 31 Jul 06:55:26 06:58:40 22° 249° (WSW) 07:01:54 435.215
CUTE-I 31 Jul 06:57:30 07:01:56 26° 96° (E) 07:06:19 437.470
DOVE 4 31 Jul 07:01:42 07:03:08 11° 90° (E) 07:04:34 437.250
NOAA 15 31 Jul 07:02:41 07:07:37 40° 99° (E) 07:12:33 137.62
LilacSat-2 31 Jul 07:07:20 07:10:43 29° 97° (E) 07:14:03 437.200
RS-15 31 Jul 07:17:29 07:28:53 82° 300° (WNW) 07:41:01 29.354- 29.394
GOMX 1 31 Jul 07:27:46 07:32:51 48° 99° (E) 07:38:06 467.674
SRMSAT 31 Jul 07:30:37 07:31:24 10° 195° (SSW) 07:32:11 437.500
STRAND 1 31 Jul 07:31:38 07:36:32 47° 72° (ENE) 07:41:28 437.568
HORYU 2 31 Jul 07:49:52 07:51:37 12° 296° (WNW) 07:53:22 437.375
O/OREOS (USA 219) 31 Jul 07:50:58 07:53:48 16° 260° (W) 07:56:39 437.305
Cosmos 2491 31 Jul 07:54:17 08:01:00 24° 70° (ENE) 08:07:41 435.465 / 435.565
SO-50 31 Jul 08:08:42 08:13:27 51° 303° (WNW) 08:18:12 436.795
NOAA 18 31 Jul 08:10:35 08:16:04 65° 287° (WNW) 08:21:30 137.9125
Cubesat XI-IV 31 Jul 08:14:38 08:19:50 55° 288° (WNW) 08:25:01 437.490
CINEMA 3 31 Jul 08:16:19 08:19:47 19° 93° (E) 08:23:12 145.822/145.860
CANX-2 31 Jul 08:18:36 08:20:52 14° 93° (E) 08:23:08 2200.000
PRISM 31 Jul 08:26:32 08:29:18 18° 68° (ENE) 08:32:04 437.425
BRITE-PL 31 Jul 08:27:28 08:31:12 21° 291° (WNW) 08:35:08 437.365/2234.400
CUTE 1.7 + AOD 2 31 Jul 08:30:40 08:33:27 17° 94° (E) 08:36:14 437.475
DOVE 4 31 Jul 08:35:59 08:41:14 76° 284° (WNW) 08:46:32 437.250
CUTE-I 31 Jul 08:37:13 08:41:57 33° 291° (WNW) 08:46:39 437.470
LilacSat-2 31 Jul 08:42:22 08:44:45 16° 291° (WNW) 08:47:08 437.200
NOAA 15 31 Jul 08:43:07 08:47:06 22° 294° (WNW) 08:51:06 137.62
CUBEBUG 2 31 Jul 08:54:36 08:56:17 12° 90° (E) 08:57:57 437.445
SEEDS 31 Jul 09:00:50 09:04:24 27° 97° (E) 09:07:57 437.485
COMPASS 1 31 Jul 09:04:29 09:07:33 20° 95° (E) 09:10:37 437.405
GOMX 1 31 Jul 09:06:54 09:10:32 19° 292° (WNW) 09:14:18 467.674
HO-68 31 Jul 09:08:15 09:15:17 54° 101° (ESE) 09:22:15 435.675
STRAND 1 31 Jul 09:12:34 09:15:55 17° 266° (W) 09:19:15 437.568
YUBILEINY 31 Jul 09:16:30 09:24:21 38° 87° (E) 09:32:14 435.215
AAUSAT CUBESAT 2 31 Jul 09:27:46 09:31:25 30° 97° (E) 09:35:01 437.432
RS-15 31 Jul 09:34:20 09:43:33 26° 326° (NW) 09:53:09 29.354- 29.394
FUNcube-1 31 Jul 09:44:43 09:47:34 17° 93° (E) 09:50:20 145.935
ZACube-1 31 Jul 09:47:55 09:51:09 20° 94° (E) 09:54:19 437.345
Cosmos 2491 31 Jul 09:49:47 09:58:26 66° 268° (W) 10:07:06 435.465 / 435.565
CINEMA 3 31 Jul 09:52:20 09:57:02 42° 288° (WNW) 10:01:38 145.822/145.860
CANX-2 31 Jul 09:52:57 09:56:52 38° 287° (WNW) 10:00:44 2200.000
UWE-3 31 Jul 09:56:58 10:01:16 41° 98° (E) 10:05:25 435.000/436.395/437.385
ANTELSAT 31 Jul 09:57:10 10:00:11 17° 67° (ENE) 10:03:14 437.575/2403.000
PRISM 31 Jul 10:00:49 10:04:23 29° 263° (W) 10:07:57 437.425
Cosmos 2504 31 Jul 10:03:35 10:10:26 26° 83° (E) 10:17:14 435.465 / 435.565
CUTE 1.7 + AOD 2 31 Jul 10:05:36 10:09:20 31° 288° (WNW) 10:13:02 437.475
Oscar 11 31 Jul 10:19:41 10:23:51 48° 99° (E) 10:27:59 145.826/435.025
M-CUBED/EXP-1 PRIME 31 Jul 10:26:57 10:28:53 12° 96° (E) 10:30:48 437.505
CUBEBUG 2 31 Jul 10:28:41 10:33:15 55° 286° (WNW) 10:37:38 437.445
TIGRISAT 31 Jul 10:35:52 10:40:14 42° 73° (ENE) 10:44:41 435.000
SEEDS 31 Jul 10:36:52 10:39:54 20° 291° (WNW) 10:42:56 437.485
COMPASS 1 31 Jul 10:39:37 10:43:04 26° 289° (WNW) 10:46:29 437.405
DELFI C3 31 Jul 10:46:51 10:50:34 39° 99° (E) 10:54:17 145.870
AUBIESAT-1 31 Jul 10:48:00 10:51:05 17° 98° (E) 10:54:05 437.475
UNISAT 6 31 Jul 10:53:32 10:58:09 72° 76° (ENE) 11:02:51 437.425
HO-68 31 Jul 10:56:48 11:02:32 27° 297° (WNW) 11:08:14 435.675
AAUSAT CUBESAT 2 31 Jul 11:03:51 11:06:39 18° 291° (WNW) 11:09:24 437.432
NANOSAT C BR1 31 Jul 11:07:13 11:09:02 13° 66° (ENE) 11:10:53 145.865
DUCHIFAT 1 31 Jul 11:09:16 11:11:00 12° 66° (ENE) 11:12:46 145.980
YUBILEINY 31 Jul 11:12:48 11:20:57 41° 284° (WNW) 11:29:11 435.215
FUNcube-1 31 Jul 11:19:52 11:23:54 35° 288° (WNW) 11:27:49 145.935
ZACube-1 31 Jul 11:23:34 11:27:27 30° 289° (WNW) 11:31:14 437.345
QB50P1 31 Jul 11:30:32 11:34:01 25° 70° (ENE) 11:37:31 145.935-145.965
ANTELSAT 31 Jul 11:32:07 11:36:31 42° 262° (W) 11:40:59 437.575/2403.000
UWE-3 31 Jul 11:34:32 11:37:19 16° 293° (WNW) 11:40:02 435.000/436.395/437.385
POPSAT HIP 1 31 Jul 11:37:13 11:40:54 29° 71° (ENE) 11:44:36 437.405
Cosmos 2504 31 Jul 11:54:21 12:03:07 63° 279° (W) 12:11:51 435.465 / 435.565
RS-15 31 Jul 11:56:49 12:02:39 14° 2° (N) 12:08:31 29.354- 29.394
HUMSAT D 31 Jul 11:56:59 12:01:04 59° 285° (WNW) 12:05:06 437.325/437.525
Oscar 11 31 Jul 11:57:35 11:59:32 13° 294° (WNW) 12:01:27 145.826/435.025
QB50P2 31 Jul 11:58:48 12:02:58 58° 75° (ENE) 12:07:11 145.880/145.840
M-CUBED/EXP-1 PRIME 31 Jul 11:59:02 12:03:42 60° 289° (WNW) 12:08:13 437.505
CUBEBUG 1 31 Jul 12:00:06 12:02:02 13° 92° (E) 12:03:57 437.445
POLYITAN 1 31 Jul 12:01:24 12:05:36 60° 75° (ENE) 12:09:51 437.675
AO-85 31 Jul 12:05:15 12:08:36 17° 108° (ESE) 12:11:54 145.980
VELOX 1 31 Jul 12:10:50 12:13:16 14° 93° (E) 12:15:41 145.980
ESTCUBE 1 31 Jul 12:12:53 12:16:47 28° 97° (E) 12:20:39 437.505/2401.250
TIGRISAT 31 Jul 12:14:11 12:17:05 16° 267° (W) 12:20:00 435.000
AUBIESAT-1 31 Jul 12:21:16 12:25:38 41° 292° (WNW) 12:29:53 437.475
DELFI C3 31 Jul 12:23:17 12:25:02 13° 293° (WNW) 12:26:48 145.870
50 SAT 31 Jul 12:27:57 12:30:42 21° 96° (E) 12:33:27 437.505
JAS-2 31 Jul 12:34:06 12:39:41 44° 72° (ENE) 12:44:47 435.910
BUGSAT 1 31 Jul 12:37:06 12:41:06 56° 75° (ENE) 12:45:10 437.445
DX 1 31 Jul 12:38:27 12:41:47 21° 96° (E) 12:45:06 434.975-435.025
NANOSAT C BR1 31 Jul 12:40:13 12:44:18 48° 260° (W) 12:48:26 145.865
Oscar 19 31 Jul 12:41:30 12:43:08 11° 62° (ENE) 12:44:46 437.125/150
DUCHIFAT 1 31 Jul 12:42:08 12:46:13 49° 260° (W) 12:50:22 145.980
UKube-1 31 Jul 12:43:23 12:46:24 18° 95° (E) 12:49:25 .
AISAT 31 Jul 12:54:37 12:58:58 50° 100° (E) 13:03:18 437.250
QB50P1 31 Jul 13:06:20 13:09:42 23° 264° (W) 13:13:06 145.935-145.965
SPROUT 31 Jul 13:06:49 13:10:36 29° 97° (E) 13:14:21 437.525
POPSAT HIP 1 31 Jul 13:13:36 13:16:40 19° 265° (W) 13:19:46 437.405
AIST 1 31 Jul 13:28:08 13:32:20 67° 95° (E) 13:36:35
CUBEBUG 1 31 Jul 13:34:17 13:38:32 48° 286° (WNW) 13:42:47 437.445
AO-85 31 Jul 13:43:20 13:48:41 59° 302° (WNW) 13:53:47 145.980
TISAT 1 31 Jul 13:45:38 13:48:27 17° 94° (E) 13:51:16 437.305
VELOX 1 31 Jul 13:45:40 13:49:53 43° 287° (WNW) 13:54:06 145.980
ESTCUBE 1 31 Jul 13:49:55 13:53:24 23° 291° (WNW) 13:56:53 437.505/2401.250
50 SAT 31 Jul 14:01:37 14:04:11 19° 290° (WNW) 14:06:44 437.505
RS-15 31 Jul 14:11:13 14:21:27 29° 38° (NE) 14:31:34 29.354- 29.394
PHONESAT 2.4 31 Jul 14:12:34 14:14:13 14° 144° (SE) 14:15:53 2401.200-2431.200
DX 1 31 Jul 14:14:10 14:17:56 29° 290° (WNW) 14:21:42 434.975-435.025
Oscar 19 31 Jul 14:16:39 14:21:45 76° 257° (WSW) 14:26:53 437.125/150
UKube-1 31 Jul 14:18:37 14:22:29 32° 289° (WNW) 14:26:20 .
JAS-2 31 Jul 14:20:33 14:24:52 21° 264° (W) 14:28:55 435.910
ITAMSAT 1 31 Jul 14:24:24 14:27:43 17° 65° (ENE) 14:31:02 435.822/435.867
AISAT 31 Jul 14:32:48 14:34:59 13° 294° (WNW) 14:37:09 437.250
Gurwin Techsat 1B 31 Jul 14:35:38 14:40:55 71° 75° (ENE) 14:46:14 435.225
Cosmos 2499 31 Jul 14:42:14 14:48:32 22° 82° (E) 14:54:42 435.465 / 435.565
SPROUT 31 Jul 14:43:09 14:46:20 20° 291° (WNW) 14:49:30 437.525
BEESAT 31 Jul 14:46:39 14:49:24 15° 93° (E) 14:52:10 436.000
CUSAT 1 31 Jul 15:11:16 15:14:44 72° 263° (W) 15:19:17 437.405
ITUPSAT 1 31 Jul 15:11:53 15:16:00 28° 97° (E) 15:20:05 437.325
TISAT 1 31 Jul 15:20:20 15:24:08 33° 289° (WNW) 15:27:56 437.305
GONETS M04 31 Jul 15:20:59 15:29:22 57° 91° (E) 15:37:49
AO-7 31 Jul 15:37:21 15:45:20 52° 66° (ENE) 15:53:21 29.400- 29.500
PHONESAT 2.4 31 Jul 15:47:19 15:50:22 87° 154° (SSE) 15:53:26 2401.200-2431.200
ITAMSAT 1 31 Jul 16:01:38 16:06:43 52° 260° (W) 16:11:49 435.822/435.867
SWISSCUBE 31 Jul 16:01:53 16:06:37 70° 285° (WNW) 16:11:19 437.505
Gurwin Techsat 1B 31 Jul 16:19:30 16:21:19 12° 269° (W) 16:23:07 435.225
DANDE 31 Jul 16:20:38 16:23:06 26° 263° (W) 16:26:00 436.750
MOZHAYETS 4 31 Jul 16:21:14 16:24:31 19° 94° (E) 16:27:46
BEESAT 31 Jul 16:22:51 16:27:23 46° 287° (WNW) 16:31:54 436.000
RS-15 31 Jul 16:23:20 16:35:48 89° 64° (ENE) 16:47:57 29.354- 29.394
Cosmos 2499 31 Jul 16:31:59 16:40:50 71° 278° (W) 16:49:27 435.465 / 435.565
SO-50 31 Jul 16:43:06 16:47:40 61° 58° (ENE) 16:52:05 436.795
KKS-1 31 Jul 16:47:25 16:51:30 33° 98° (E) 16:55:33 437.445
ITUPSAT 1 31 Jul 16:49:49 16:53:41 25° 291° (WNW) 16:57:32 437.325
HORYU 2 31 Jul 17:06:12 17:10:16 35° 72° (ENE) 17:14:22 437.375
STARS 31 Jul 17:12:44 17:16:41 31° 98° (E) 17:20:36 437.465
GONETS M04 31 Jul 17:19:29 17:26:34 28° 289° (WNW) 17:33:45
PHONESAT 2.4 31 Jul 17:24:15 17:27:04 32° 353° (N) 17:29:53 2401.200-2431.200
AO-7 31 Jul 17:31:03 17:38:15 32° 262° (W) 17:45:31 29.400- 29.500
LilacSat-2 31 Jul 17:49:02 17:49:42 10° 66° (ENE) 17:50:21 437.200
BEESAT 3 31 Jul 17:49:51 17:53:45 77° 119° (ESE) 17:57:41 437.485
CUBESAT XI-V 31 Jul 17:53:34 17:57:14 23° 95° (E) 18:00:53 437.345
NOAA 18 31 Jul 17:54:57 17:59:04 22° 65° (ENE) 18:03:11 137.9125
Cubesat XI-IV 31 Jul 17:55:13 17:59:07 21° 66° (ENE) 18:03:01 437.490
BRITE-PL 31 Jul 17:57:23 18:00:54 28° 71° (ENE) 18:04:29 437.365/2234.400
MOZHAYETS 4 31 Jul 17:57:37 18:01:43 33° 288° (WNW) 18:05:47
BEESAT 2 31 Jul 18:06:02 18:09:54 58° 116° (ESE) 18:13:48 435.950
CUTE-I 31 Jul 18:16:15 18:20:59 33° 69° (ENE) 18:25:44 437.470
NOAA 15 31 Jul 18:19:44 18:24:44 47° 72° (ENE) 18:29:46 137.62
KKS-1 31 Jul 18:24:36 18:27:48 20° 292° (WNW) 18:31:00 437.445
SO-50 31 Jul 18:26:06 18:27:31 11° 253° (WSW) 18:28:55 436.795
Cosmos 2499 31 Jul 18:32:26 18:35:23 12° 297° (WNW) 18:38:18 435.465 / 435.565
GOMX 1 31 Jul 18:33:52 18:37:34 31° 71° (ENE) 18:41:26 467.674
RS-15 31 Jul 18:38:24 18:46:35 21° 261° (W) 18:54:43 29.354- 29.394
ISS 31 Jul 18:42:18 18:43:28 12° 127° (SE) 18:44:40 145.825
HORYU 2 31 Jul 18:43:50 18:46:53 18° 266° (W) 18:49:57 437.375
PCSat 31 Jul 18:49:04 18:54:26 73° 114° (ESE) 18:59:52 145.827
STARS 31 Jul 18:49:31 18:52:49 21° 292° (WNW) 18:56:06 437.465
PHONESAT 2.4 31 Jul 19:01:03 19:03:57 36° 10° (N) 19:06:50 2401.200-2431.200
AIST 2 31 Jul 19:13:43 19:15:07 12° 108° (ESE) 19:16:32 435.215
CINEMA 3 31 Jul 19:16:34 19:18:15 12° 63° (ENE) 19:19:56 145.822/145.860
LilacSat-2 31 Jul 19:19:46 19:23:31 48° 261° (W) 19:27:18 437.200
CUBESAT XI-V 31 Jul 19:30:35 19:34:34 29° 289° (WNW) 19:38:33 437.345
YUBILEINY 31 Jul 19:32:02 19:36:43 15° 64° (ENE) 19:41:22 435.215
Cubesat XI-IV 31 Jul 19:33:42 19:38:49 45° 261° (W) 19:43:58 437.490
NOAA 18 31 Jul 19:34:05 19:39:21 45° 260° (W) 19:44:41 137.9125
HO-68 31 Jul 19:34:11 19:40:12 30° 64° (ENE) 19:46:14 435.675
BRITE-PL 31 Jul 19:36:35 19:39:27 18° 266° (W) 19:42:21 437.365/2234.400
DOVE 4 31 Jul 19:38:31 19:42:49 75° 77° (ENE) 19:47:25 437.250
STRAND 1 31 Jul 19:46:01 19:49:45 20° 95° (E) 19:53:27 437.568
BEESAT 2 31 Jul 19:46:29 19:48:05 12° 313° (NW) 19:49:40 435.950
SEEDS 31 Jul 19:50:56 19:53:06 14° 67° (ENE) 19:55:15 437.485
CUTE-I 31 Jul 19:56:29 20:00:59 27° 264° (W) 20:05:31 437.470
NOAA 15 31 Jul 20:01:16 20:04:43 18° 266° (W) 20:08:12 137.62
GOMX 1 31 Jul 20:12:54 20:15:45 18° 267° (W) 20:18:42 467.674
AAUSAT CUBESAT 2 31 Jul 20:16:19 20:18:34 14° 68° (ENE) 20:20:50 437.432
ISS 31 Jul 20:16:21 20:19:33 52° 321° (NW) 20:22:44 145.825
O/OREOS (USA 219) 31 Jul 20:19:25 20:23:52 83° 107° (ESE) 20:28:21 437.305
PCSat 31 Jul 20:35:11 20:38:23 16° 311° (NW) 20:41:36 145.827
PHONESAT 2.4 31 Jul 20:37:30 20:40:33 60° 205° (SSW) 20:43:35 2401.200-2431.200
FUNcube-1 31 Jul 20:39:26 20:40:09 10° 64° (ENE) 20:40:52 145.935
CANX-2 31 Jul 20:41:57 20:46:13 84° 255° (WSW) 20:50:30 2200.000
ZACube-1 31 Jul 20:42:03 20:43:54 12° 65° (ENE) 20:45:45 437.345
AIST 2 31 Jul 20:49:08 20:53:07 50° 302° (WNW) 20:57:08 435.215
CINEMA 3 31 Jul 20:50:11 20:54:42 64° 260° (W) 20:59:28 145.822/145.860
UWE-3 31 Jul 20:50:57 20:54:40 25° 69° (ENE) 20:58:25 435.000/436.395/437.385
Cosmos 2491 31 Jul 20:51:56 20:59:06 30° 84° (E) 21:06:16 435.465 / 435.565
CUTE 1.7 + AOD 2 31 Jul 20:54:23 20:58:38 69° 259° (W) 21:02:53 437.475
Oscar 11 31 Jul 21:11:43 21:15:18 26° 70° (ENE) 21:18:53 145.826/435.025
HO-68 31 Jul 21:20:43 21:27:34 48° 260° (W) 21:34:29 435.675
CUBEBUG 2 31 Jul 21:22:49 21:27:27 84° 76° (ENE) 21:32:12 437.445
STRAND 1 31 Jul 21:24:17 21:29:02 40° 289° (WNW) 21:33:44 437.568
SEEDS 31 Jul 21:24:24 21:28:24 42° 261° (W) 21:32:24 437.485
YUBILEINY 31 Jul 21:25:55 21:34:48 86° 85° (E) 21:43:35 435.215
COMPASS 1 31 Jul 21:26:22 21:30:30 59° 260° (W) 21:34:37 437.405
DELFI C3 31 Jul 21:30:54 21:33:20 16° 69° (ENE) 21:35:47 145.870
AUBIESAT-1 31 Jul 21:32:23 21:34:00 12° 59° (ENE) 21:35:39 437.475
PRISM 31 Jul 21:44:41 21:48:35 42° 99° (E) 21:52:30 437.425
AAUSAT CUBESAT 2 31 Jul 21:49:49 21:53:42 38° 262° (W) 21:57:35 437.432
Cosmos 2504 31 Jul 21:51:57 21:59:21 41° 76° (ENE) 22:06:14 435.465 / 435.565
FUNcube-1 31 Jul 22:11:13 22:15:44 70° 260° (W) 22:20:19 145.935
ZACube-1 31 Jul 22:15:08 22:19:37 58° 260° (W) 22:24:10 437.345
AO-85 31 Jul 22:18:46 22:22:58 50° 57° (ENE) 22:26:51 145.980
UWE-3 31 Jul 22:27:01 22:30:57 28° 264° (W) 22:34:58 435.000/436.395/437.385
TIGRISAT 31 Jul 22:33:16 22:34:23 11° 91° (E) 22:35:29 435.000
M-CUBED/EXP-1 PRIME 31 Jul 22:42:28 22:46:17 77° 254° (WSW) 22:50:28 437.505
HUMSAT D 31 Jul 22:44:34 22:48:48 61° 76° (ENE) 22:53:03 437.325/437.525
Cosmos 2491 31 Jul 22:47:03 22:55:26 51° 282° (WNW) 23:03:53 435.465 / 435.565
Oscar 11 31 Jul 22:47:52 22:51:20 23° 265° (W) 22:54:49 145.826/435.025
UNISAT 6 31 Jul 22:49:31 22:52:46 19° 94° (E) 22:55:56 437.425
AUBIESAT-1 31 Jul 23:04:08 23:07:53 50° 256° (WSW) 23:11:58 437.475
DELFI C3 31 Jul 23:04:22 23:07:55 31° 263° (W) 23:11:28 145.870
ESTCUBE 1 31 Jul 23:10:09 23:13:18 19° 68° (ENE) 23:16:27 437.505/2401.250
PRISM 31 Jul 23:21:33 23:23:30 13° 294° (WNW) 23:25:27 437.425
JUGNU 31 Jul 23:25:13 23:26:25 11° 165° (SSE) 23:27:38 437.505
YUBILEINY 31 Jul 23:25:29 23:30:19 16° 281° (WNW) 23:35:09 435.215
ANTELSAT 31 Jul 23:26:49 23:31:17 51° 100° (E) 23:35:36 437.575/2403.000
DX 1 31 Jul 23:32:27 23:34:28 13° 65° (ENE) 23:36:27 434.975-435.025
UKube-1 31 Jul 23:36:56 23:38:11 11° 64° (ENE) 23:39:26 .
AIST 1 31 Jul 23:40:00 23:41:56 13° 73° (ENE) 23:43:51
Cosmos 2504 31 Jul 23:45:42 23:52:26 32° 275° (W) 23:58:47 435.465 / 435.565
QB50P2 31 Jul 23:48:50 23:50:31 12° 92° (E) 23:52:11 145.880/145.840
AISAT 31 Jul 23:49:13 23:53:03 30° 70° (ENE) 23:56:53 437.250
POLYITAN 1 31 Jul 23:51:22 23:53:09 12° 92° (E) 23:54:56 437.675
SPROUT 31 Jul 23:58:26 00:01:03 16° 67° (ENE) 00:03:41 437.525
AO-85 01 Aug 00:01:39 00:02:46 11° 254° (WSW) 00:03:51 145.980
TIGRISAT 01 Aug 00:06:56 00:11:26 58° 285° (WNW) 00:15:47 435.000
BUGSAT 1 01 Aug 00:24:35 00:25:30 11° 92° (E) 00:26:24 437.445
UNISAT 6 01 Aug 00:25:25 00:29:31 33° 289° (WNW) 00:33:32 437.425
CUBEBUG 1 01 Aug 00:26:46 00:31:04 88° 257° (WSW) 00:35:25 437.445
NANOSAT C BR1 01 Aug 00:27:43 00:31:34 32° 98° (E) 00:35:21 145.865
DUCHIFAT 1 01 Aug 00:29:25 00:33:13 31° 98° (E) 00:36:57 145.980
50 SAT 01 Aug 00:34:53 00:38:32 70° 259° (WSW) 00:42:11 437.505
VELOX 1 01 Aug 00:39:27 00:43:49 73° 257° (WSW) 00:48:13 145.980
ESTCUBE 1 01 Aug 00:45:46 00:49:50 34° 262° (W) 00:53:54 437.505/2401.250
